�N����,����,����,����,����,�C��,���x,�~����,�S�V����,�ő�u�ԕ���,,,,,
,,,,,,,,,����,����,����,�N��,,
yyyy/mm/dd,hh:mm:ss,(16),16����,m/s,��,%,mm,KW/�u,(16),16����,m/s,Time,,
2021/10/1,1:00:00,10,�쐼,0.7,15,99.7,0,0,14,�k��,2.7,31,,
2021/10/1,2:00:00,13,���k��,2.5,14.9,100,0,0,13,���k��,3,0,,
2021/10/1,3:00:00,13,���k��,2.1,14.1,100,0,0,13,���k��,3.3,4,,
2021/10/1,4:00:00,12,��,2,13.6,100,0,0,14,�k��,3,20,,
2021/10/1,5:00:00,13,���k��,1.4,11.5,100,0,0,12,��,2.4,0,,
2021/10/1,6:00:00,13,���k��,1.6,11.8,100,0,0.02,12,��,2.3,57,,
2021/10/1,7:00:00,16,�É�,0,15.5,100,0,0.13,14,�k��,2.5,26,,
2021/10/1,8:00:00,14,�k��,2,17.6,92,0,0.29,14,�k��,3.7,51,,
2021/10/1,9:00:00,2,�k��,3,18.4,89.5,0,0.41,2,�k��,4.9,45,,
2021/10/1,10:00:00,4,��,2.1,18.9,90.3,0,0.34,5,���쓌,3.6,47,,
2021/10/1,11:00:00,2,�k��,2.2,19.5,87.2,0,0.28,2,�k��,4.5,24,,
2021/10/1,12:00:00,3,���k��,3.1,18.6,89.4,0,0.19,3,���k��,5.6,46,,
2021/10/1,13:00:00,2,�k��,2.2,17.7,94.3,0,0.13,3,���k��,5,18,,
2021/10/1,14:00:00,3,���k��,2.8,17.2,95.9,0,0.1,3,���k��,4.9,50,,
2021/10/1,15:00:00,2,�k��,2.5,16.4,99.2,0,0.05,2,�k��,5.4,46,,
2021/10/1,16:00:00,2,�k��,2.3,16.7,98.3,0,0.03,1,�k�k��,3.5,35,,
2021/10/1,17:00:00,2,�k��,2,16.7,95.9,0,0.01,2,�k��,3.8,43,,
2021/10/1,18:00:00,4,��,1.5,16.1,98.1,0,0,4,��,2.5,20,,
2021/10/1,19:00:00,3,���k��,1,15.9,99.8,0,0,3,���k��,1.8,25,,
2021/10/1,20:00:00,6,�쓌,1.1,15.7,100,2.5,0,6,�쓌,2.8,37,,
2021/10/1,21:00:00,9,��쐼,2.2,14.9,98.5,1.5,0,9,��쐼,7.2,30,,
2021/10/1,22:00:00,10,�쐼,1.5,15.1,95.8,1,0,8,��,6.2,31,,
2021/10/1,23:00:00,9,��쐼,1.5,15.1,97.3,0.5,0,9,��쐼,2.5,56,,
2021/10/1,0:00:00,1,�k�k��,1.2,14.4,99.3,0.5,0,10,�쐼,4.1,3,,
2021/10/2,1:00:00,1,�k�k��,1.3,14.1,99.9,1,0,16,�k,2.2,47,,
2021/10/2,2:00:00,14,�k��,2.2,13.6,99.7,1,0,14,�k��,3.5,55,,
2021/10/2,3:00:00,13.6,���k��,97.8,1.5,0,,,,,,,,
2021/10/2,4:00:00,14,�k��,3.9,13.4,98.6,2,0,14,�k��,6.6,57,,
2021/10/2,5:00:00,16,�k,1.5,13.4,97.6,0.5,0,14,�k��,5.6,12,,
2021/10/2,6:00:00,14,�k��,3.1,13.2,97.8,1,0,15,�k�k��,6.7,19,,
2021/10/2,7:00:00,16,�k,1.6,13.4,96.6,0.5,0.01,13,���k��,7.3,5,,
2021/10/2,8:00:00,14,�k��,3,14.1,95.2,0,0.12,13,���k��,6.7,57,,
2021/10/2,9:00:00,15,�k�k��,2.3,14.5,93,0,0.15,15,�k�k��,5.6,42,,
2021/10/2,10:00:00,15,�k�k��,1.9,15.7,88.1,0,0.15,15,�k�k��,4.5,8,,
2021/10/2,11:00:00,15,�k�k��,2.5,17.4,71,0,0.43,3,���k��,5.6,58,,
2021/10/2,12:00:00,14,�k��,2.3,19.6,71.3,0,0.69,16,�k,5.1,22,,
2021/10/2,13:00:00,3,���k��,1.9,19.8,67.3,0,0.8,13,���k��,4.8,15,,
2021/10/2,14:00:00,6,�쓌,2.4,18.9,72.2,0,0.66,5,���쓌,4,5,,
2021/10/2,15:00:00,8,��,2,18.5,75.2,0,0.47,6,�쓌,3.6,4,,
2021/10/2,16:00:00,8,��,1.9,16.6,85.1,0,0.21,8,��,3.8,24,,
2021/10/2,17:00:00,10,�쐼,1,14.7,90.2,0,0.09,9,��쐼,3.5,19,,
2021/10/2,18:00:00,11,���쐼,0.7,13.6,97,0,0,11,���쐼,2,21,,
2021/10/2,19:00:00,15,�k�k��,0.5,11.5,98.2,0,0,10,�쐼,2.2,21,,
2021/10/2,20:00:00,11,���쐼,1.7,10.9,99.8,0,0,12,��,2.6,59,,
2021/10/2,21:00:00,12,��,1.8,11.2,100,0,0,12,��,2.7,0,,
2021/10/2,22:00:00,12,��,2.6,12.2,100,0,0,13,���k��,3.5,58,,
2021/10/2,23:00:00,13,���k��,2.1,11.6,100,0,0,13,���k��,4.3,29,,
2021/10/2,0:00:00,13,���k��,3,11.5,99,0,0,12,��,3.9,59,,
2021/10/3,1:00:00,13,���k��,2.7,12.9,91.8,0,0,14,�k��,4.5,34,,
2021/10/3,2:00:00,14,�k��,2.5,14.1,80.3,0,0,14,�k��,4.9,59,,
2021/10/3,3:00:00,13,���k��,3.7,13.6,87.2,0,0,13,���k��,5.4,52,,
2021/10/3,4:00:00,15,�k�k��,2,13.5,81.6,0,0,14,�k��,5.1,32,,
2021/10/3,5:00:00,14,�k��,2.5,12.5,80.9,0,0,15,�k�k��,5.9,4,,
2021/10/3,6:00:00,13,���k��,1.9,9.8,92.7,0,0.03,14,�k��,4.4,5,,
2021/10/3,7:00:00,11,���쐼,1.7,13.6,82.6,0,0.19,14,�k��,3.6,33,,
2021/10/3,8:00:00,9,��쐼,1,17,58.4,0,0.39,10,�쐼,3.5,1,,
2021/10/3,9:00:00,10,�쐼,0.6,18.3,63,0,0.57,8,��,3.4,11,,
2021/10/3,10:00:00,6,�쓌,2.3,19.5,51.5,0,0.68,7,��쓌,3.6,45,,
2021/10/3,11:00:00,2,�k��,2.5,20.6,60.1,0,0.76,4,��,4.7,47,,
2021/10/3,12:00:00,13,���k��,0.9,20,54.6,0,0.49,1,�k�k��,3.5,2,,
2021/10/3,13:00:00,12,��,2.9,21.7,43.3,0,0.67,13,���k��,6.2,44,,
2021/10/3,14:00:00,12,��,4.3,21.1,44.3,0,0.63,13,���k��,7.9,30,,
2021/10/3,15:00:00,12,��,5.2,20.6,43.7,0,0.48,12,��,9.5,58,,
2021/10/3,16:00:00,12,��,3.6,19.2,53.3,0,0.29,11,���쐼,9.2,15,,
2021/10/3,17:00:00,11,���쐼,3.2,15.6,65.3,0,0.08,9,��쐼,5.9,23,,
2021/10/3,18:00:00,12,��,1.1,12.8,76.6,0,0,11,���쐼,4.5,14,,
2021/10/3,19:00:00,13,���k��,1.4,12.4,82.2,0,0,11,���쐼,3.3,35,,
2021/10/3,20:00:00,11,���쐼,2.1,14.8,65,0,0,12,��,4.1,47,,
2021/10/3,21:00:00,10,�쐼,3,14.2,67.8,0,0,11,���쐼,6.7,30,,
2021/10/3,22:00:00,10,�쐼,1.4,9.9,84.7,0,0,9,��쐼,5.2,0,,
2021/10/3,23:00:00,9,��쐼,3.2,15.9,72.4,0,0,9,��쐼,5.5,56,,
2021/10/3,0:00:00,8,��,2.7,16.4,80,0,0,9,��쐼,8.3,21,,
2021/10/4,1:00:00,9,��쐼,3.7,16.9,81,0,0,9,��쐼,7.4,42,,
2021/10/4,2:00:00,9,��쐼,4.1,17.7,72.1,0,0,9,��쐼,9.2,18,,
2021/10/4,3:00:00,9,��쐼,3.2,17.6,69,0,0,8,��,7.3,36,,
2021/10/4,4:00:00,9,��쐼,3.4,17.8,69,0,0,9,��쐼,7.9,54,,
2021/10/4,5:00:00,8,��,3,18,73.1,0,0,8,��,5.6,6,,
2021/10/4,6:00:00,9,��쐼,3.2,19.7,69.2,0,0.02,8,��,6.2,36,,
2021/10/4,7:00:00,10,�쐼,2.4,19.8,73.9,0,0.09,8,��,4.5,8,,
2021/10/4,8:00:00,9,��쐼,3.9,21.4,65.1,0,0.31,8,��,7.7,34,,
2021/10/4,9:00:00,8,��,3,21.5,66.4,0,0.38,8,��,8.8,6,,
2021/10/4,10:00:00,10,�쐼,3.7,23.1,64.2,0,0.42,10,�쐼,8.1,56,,
2021/10/4,11:00:00,10,�쐼,6.5,24.1,62,0,0.51,11,���쐼,12.5,52,,
2021/10/4,12:00:00,9,��쐼,5.7,23.6,64.4,0,0.49,11,���쐼,13.7,15,,
2021/10/4,13:00:00,10,�쐼,4.2,24.4,58.7,0,0.36,10,�쐼,10,6,,
2021/10/4,14:00:00,10,�쐼,4.5,24.3,57.2,0,0.21,12,��,9.6,46,,
2021/10/4,15:00:00,9,��쐼,2.9,23.7,62.6,0,0.17,12,��,10.6,11,,
2021/10/4,16:00:00,8,��,2.8,22.5,67.6,0,0.07,10,�쐼,5.4,7,,
2021/10/4,17:00:00,9,��쐼,3.2,21.4,70.1,0,0.04,8,��,7.5,33,,
2021/10/4,18:00:00,9,��쐼,3.6,21.7,69.8,0,0,9,��쐼,6.2,57,,
2021/10/4,19:00:00,9,��쐼,3.8,21.4,70.9,0,0,9,��쐼,7,7,,
2021/10/4,20:00:00,9,��쐼,2.5,21,71.8,0,0,10,�쐼,6.3,2,,
2021/10/4,21:00:00,9,��쐼,2.4,21.2,70.6,0,0,9,��쐼,4.7,12,,
2021/10/4,22:00:00,8,��,2,19.7,78.8,0,0,8,��,4.5,2,,
2021/10/4,23:00:00,10,�쐼,1.8,17.5,89.7,0,0,8,��,3.4,1,,
2021/10/4,0:00:00,2,�k��,5.5,17.3,85.6,0,0,2,�k��,10.4,47,,
2021/10/5,1:00:00,3,���k��,3.6,15.4,94.4,0.5,0,3,���k��,7.3,4,,
2021/10/5,2:00:00,4,��,3.8,14.7,98.6,2,0,3,���k��,6.8,10,,
2021/10/5,3:00:00,3,���k��,4.1,14,99.1,5.5,0,2,�k��,7.4,43,,
2021/10/5,4:00:00,3,���k��,4.6,13.2,99.1,2.5,0,3,���k��,7.5,16,,
2021/10/5,5:00:00,3,���k��,1.9,12.4,98.2,2,0,2,�k��,6.3,30,,
2021/10/5,6:00:00,13,���k��,1.3,12.4,98.2,0,0,2,�k��,3.9,2,,
2021/10/5,7:00:00,12,��,0.8,12.6,99,0,0.02,13,���k��,2,0,,
2021/10/5,8:00:00,14,�k��,1.1,13.1,98.5,0,0.05,13,���k��,2.3,24,,
2021/10/5,9:00:00,1,�k�k��,0.8,14,93.6,0,0.11,1,�k�k��,1.7,50,,
2021/10/5,10:00:00,3,���k��,1.7,14.8,88.2,0,0.21,4,��,2.9,58,,
2021/10/5,11:00:00,3,���k��,2.7,13.9,87.5,0,0.18,3,���k��,4.4,52,,
2021/10/5,12:00:00,3,���k��,2.5,12.5,96.5,0.5,0.1,4,��,6.3,4,,
2021/10/5,13:00:00,5,���쓌,2,12.6,90.2,0,0.11,4,��,4.7,29,,
2021/10/5,14:00:00,5,���쓌,1.5,13.2,87.7,0,0.08,7,��쓌,4.4,30,,
2021/10/5,15:00:00,6,�쓌,1.3,13.1,82,0,0.06,5,���쓌,3.6,9,,
2021/10/5,16:00:00,5,���쓌,2.5,12.1,90.3,0,0.03,5,���쓌,3.8,50,,
2021/10/5,17:00:00,4,��,1.8,10.8,91.2,1,0.01,4,��,4.3,23,,
2021/10/5,18:00:00,6,�쓌,1.1,10,93.2,2,0,5,���쓌,3.1,15,,
2021/10/5,19:00:00,9.6,��쐼,97.9,1,0,,,,,,,,
2021/10/5,20:00:00,5,���쓌,2.7,10.1,92,1,0,6,�쓌,4.8,53,,
2021/10/5,21:00:00,3,���k��,1,9.5,96.3,1.5,0,5,���쓌,2.9,9,,
2021/10/5,22:00:00,1,�k�k��,0.8,9.5,98.6,1,0,1,�k�k��,1.6,49,,
2021/10/5,23:00:00,1,�k�k��,1.1,9.2,99.3,2,0,1,�k�k��,2,11,,
2021/10/5,0:00:00,16,�É�,0.2,9.1,99.6,2,0,1,�k�k��,1.9,35,,
2021/10/6,1:00:00,16,�É�,0,9.2,99.8,1.5,0,15,�k�k��,1.5,25,,
2021/10/6,2:00:00,15,�k�k��,0.7,9.3,100,0.5,0,16,�k,6.7,17,,
2021/10/6,3:00:00,15,�k�k��,1,9.3,100,0,0,12,��,3.7,38,,
2021/10/6,4:00:00,14,�k��,1,9.2,100,0,0,14,�k��,2.5,47,,
2021/10/6,5:00:00,14,�k��,1.4,9.2,99.8,0,0,14,�k��,2.4,50,,
2021/10/6,6:00:00,16,�É�,0.2,9.4,99.7,0,0.01,13,���k��,2.3,38,,
2021/10/6,7:00:00,15,�k�k��,1.1,10.2,99.6,0,0.08,13,���k��,3.1,24,,
2021/10/6,8:00:00,13,���k��,0.6,11.3,86.2,0,0.3,12,��,2.5,26,,
2021/10/6,9:00:00,16,�É�,0.1,12.4,80.9,0,0.34,14,�k��,2.1,5,,
2021/10/6,10:00:00,7,��쓌,2.1,14.3,83.9,0,0.59,7,��쓌,3.5,54,,
2021/10/6,11:00:00,7,��쓌,3,13.9,75.2,0,0.81,7,��쓌,5.4,56,,
2021/10/6,12:00:00,8,��,3.5,14.3,73.1,0,0.66,7,��쓌,5.8,56,,
2021/10/6,13:00:00,8,��,4.1,14.5,78,0,0.69,8,��,6.4,42,,
2021/10/6,14:00:00,8,��,2.6,14.4,81.4,0,0.58,7,��쓌,6.9,2,,
2021/10/6,15:00:00,7,��쓌,1.9,14.4,78.8,0,0.44,8,��,5.4,21,,
2021/10/6,16:00:00,9,��쐼,1.8,13.7,85.6,0,0.27,8,��,3.6,25,,
2021/10/6,17:00:00,12,��,1.1,12.2,95,0,0.07,10,�쐼,2.7,1,,
2021/10/6,18:00:00,11,���쐼,1.2,9.4,96.8,0,0,14,�k��,3.3,13,,
2021/10/6,19:00:00,11,���쐼,1.7,7.3,94.9,0,0,12,��,3.4,21,,
2021/10/6,20:00:00,14,�k��,2.9,10.2,78.2,0,0,15,�k�k��,5.6,55,,
2021/10/6,21:00:00,14,�k��,2.4,9.1,77.3,0,0,13,���k��,5.2,59,,
2021/10/6,22:00:00,8,��,1.1,5.4,93.2,0,0,14,�k��,4.8,21,,
2021/10/6,23:00:00,10,�쐼,0.5,4.8,95.5,0,0,15,�k�k��,4.4,28,,
2021/10/6,0:00:00,8,��,2,5.6,90.7,0,0,8,��,4.1,44,,
2021/10/7,1:00:00,11,���쐼,0.8,4.4,97.5,0,0,13,���k��,2.5,14,,
2021/10/7,2:00:00,13,���k��,1.5,5.6,97.7,0,0,11,���쐼,2.1,18,,
2021/10/7,3:00:00,13,���k��,1.2,6,93.5,0,0,12,��,2.6,24,,
2021/10/7,4:00:00,13,���k��,1.7,7,89.5,0,0,14,�k��,2.8,59,,
2021/10/7,5:00:00,13,���k��,1.5,6.9,90.5,0,0,14,�k��,2.9,42,,
2021/10/7,6:00:00,14,�k��,1.3,6.9,91.2,0,0.02,13,���k��,2.1,3,,
2021/10/7,7:00:00,13,���k��,1.6,8.7,84.4,0,0.13,14,�k��,3.1,22,,
2021/10/7,8:00:00,14,�k��,1.2,11.4,78.7,0,0.29,12,��,2.5,14,,
2021/10/7,9:00:00,2,�k��,2.2,14.1,61.4,0,0.54,5,���쓌,4.3,59,,
2021/10/7,10:00:00,5,���쓌,2.7,14.7,64,0,0.64,4,��,4.6,29,,
2021/10/7,11:00:00,6,�쓌,3.4,13.5,64.4,0,0.62,5,���쓌,5.5,42,,
2021/10/7,12:00:00,6,�쓌,2.7,14.7,59,0,0.7,5,���쓌,5.5,35,,
2021/10/7,13:00:00,7,��쓌,2.4,13.1,61.5,0,0.37,6,�쓌,5.6,5,,
2021/10/7,14:00:00,7,��쓌,2.8,13.5,65.8,0,0.38,7,��쓌,5,51,,
2021/10/7,15:00:00,7,��쓌,2.5,13.2,60.6,0,0.35,7,��쓌,4.8,2,,
2021/10/7,16:00:00,6,�쓌,2,12.8,70.8,0,0.24,5,���쓌,4.7,32,,
2021/10/7,17:00:00,7,��쓌,0.9,11.8,77,0,0.04,6,�쓌,4.3,22,,
2021/10/7,18:00:00,7,��쓌,1.6,12.4,77.5,0,0,8,��,3.8,35,,
2021/10/7,19:00:00,7,��쓌,1.4,12.4,80.3,0,0,7,��쓌,2.9,57,,
2021/10/7,20:00:00,13,���k��,0.9,10.3,96.8,0,0,12,��,2.3,47,,
2021/10/7,21:00:00,14,�k��,0.4,10,98.5,0.5,0,12,��,1.9,10,,
2021/10/7,22:00:00,13,���k��,1.5,10.1,99.1,0.5,0,13,���k��,2.6,16,,
2021/10/7,23:00:00,15,�k�k��,0.5,10.2,98.6,0,0,14,�k��,2.5,19,,
2021/10/7,0:00:00,14,�k��,2.4,10.1,99,0.5,0,14,�k��,3.6,59,,
2021/10/8,1:00:00,14,�k��,1.4,10.3,99.3,1,0,14,�k��,3.3,0,,
2021/10/8,2:00:00,14,�k��,1.7,10.2,99.1,0,0,15,�k�k��,3.2,17,,
2021/10/8,3:00:00,14,�k��,1.8,9.9,99.6,0,0,15,�k�k��,4.7,31,,
2021/10/8,4:00:00,15,�k�k��,1.6,9.7,99.9,0.5,0,14,�k��,5.7,41,,
2021/10/8,5:00:00,15,�k�k��,1.5,9.6,99.7,0.5,0,15,�k�k��,4,39,,
2021/10/8,6:00:00,14,�k��,0.5,9.6,99.4,0,0.01,16,�k,3,16,,
2021/10/8,7:00:00,1,�k�k��,1.6,9.9,99.4,0.5,0.02,1,�k�k��,2.9,45,,
2021/10/8,8:00:00,14,�k��,0.8,10.7,97.2,0,0.07,1,�k�k��,2.6,0,,
2021/10/8,9:00:00,15,�k�k��,1.2,12,92.4,0,0.19,14,�k��,3.1,34,,
2021/10/8,10:00:00,15,�k�k��,0.8,13.1,87.7,0,0.33,2,�k��,3.3,40,,
2021/10/8,11:00:00,14,�k��,0.8,14.9,77.5,0,0.52,13,���k��,3.3,25,,
2021/10/8,12:00:00,13,���k��,1.8,15.7,74.1,0,0.61,12,��,4.1,57,,
2021/10/8,13:00:00,9,��쐼,2,16.2,74.2,0,0.7,8,��,4.4,59,,
2021/10/8,14:00:00,8,��,4.1,15.1,77.5,0,0.59,8,��,6.9,56,,
2021/10/8,15:00:00,9,��쐼,3.5,14.6,82.2,0,0.45,8,��,6.8,50,,
2021/10/8,16:00:00,9,��쐼,2.6,13.7,86.5,0,0.21,8,��,6.2,27,,
2021/10/8,17:00:00,16,�É�,0,12.3,94.4,0,0.04,9,��쐼,3.2,1,,
2021/10/8,18:00:00,13,���k��,0.8,10,98.8,0,0,13,���k��,1.7,58,,
2021/10/8,19:00:00,13,���k��,1.6,9.8,100,0,0,14,�k��,2.5,29,,
2021/10/8,20:00:00,13,���k��,2.2,9.4,100,0,0,13,���k��,3.4,50,,
2021/10/8,21:00:00,13,���k��,2.2,8.5,99.4,0,0,13,���k��,2.9,52,,
2021/10/8,22:00:00,13,���k��,2.5,9,98.6,0,0,14,�k��,3.5,44,,
2021/10/8,23:00:00,13,���k��,2.7,8,99.4,0,0,13,���k��,3.9,55,,
2021/10/8,0:00:00,13,���k��,3.7,9.8,90,0,0,13,���k��,5.8,51,,
2021/10/9,1:00:00,13,���k��,3.3,9,91.8,0,0,13,���k��,5.4,28,,
2021/10/9,2:00:00,13,���k��,3.7,7.6,94.9,0,0,12,��,5.6,41,,
2021/10/9,3:00:00,12,��,1.1,6.8,92,0,0,13,���k��,5.2,40,,
2021/10/9,4:00:00,12,��,1.6,6,98.4,0,0,14,�k��,2.5,58,,
2021/10/9,5:00:00,13,���k��,1.7,3.8,98.9,0,0,13,���k��,2.9,6,,
2021/10/9,6:00:00,13,���k��,2.1,5,100,0,0.02,12,��,3,59,,
2021/10/9,7:00:00,13,���k��,1.2,8.7,91,0,0.17,12,��,3.3,2,,
2021/10/9,8:00:00,13,���k��,1,12.6,81.5,0,0.37,14,�k��,3.9,36,,
2021/10/9,9:00:00,13,���k��,0.7,16.1,70.8,0,0.54,12,��,2.8,22,,
2021/10/9,10:00:00,10,�쐼,2.4,16.8,62.3,0,0.66,10,�쐼,4.1,55,,
2021/10/9,11:00:00,8,��,3,17.1,66.5,0,0.74,8,��,5.7,12,,
2021/10/9,12:00:00,7,��쓌,3.6,17.1,70.4,0,0.75,7,��쓌,6.4,52,,
2021/10/9,13:00:00,7,��쓌,4.1,17.3,66.3,0,0.7,8,��,8.4,58,,
2021/10/9,14:00:00,8,��,3.5,17.7,63.7,0,0.6,7,��쓌,7.9,3,,
2021/10/9,15:00:00,6,�쓌,3,16.7,75.8,0,0.45,7,��쓌,5.4,57,,
2021/10/9,16:00:00,6,�쓌,1.2,16.1,80.2,0,0.25,7,��쓌,5,3,,
2021/10/9,17:00:00,1,�k�k��,1.4,12.8,91.9,0,0.06,8,��,2.9,17,,
2021/10/9,18:00:00,13,���k��,1.8,8.3,98.1,0,0,14,�k��,2.2,59,,
2021/10/9,19:00:00,11,���쐼,1.3,8.8,99.5,0,0,14,�k��,2.8,32,,
2021/10/9,20:00:00,13,���k��,1.4,7.3,99.9,0,0,14,�k��,2.4,47,,
2021/10/9,21:00:00,13,���k��,2.4,8.2,100,0,0,13,���k��,3.4,48,,
2021/10/9,22:00:00,13,���k��,1.3,7.6,100,0,0,12,��,2.7,21,,
2021/10/9,23:00:00,13,���k��,2.1,6.6,100,0,0,13,���k��,2.7,55,,
2021/10/9,0:00:00,11,���쐼,1.1,5.6,99.5,0,0,13,���k��,3.1,21,,
2021/10/10,1:00:00,13,���k��,1.9,6,99.4,0,0,13,���k��,3.9,33,,
2021/10/10,2:00:00,13,���k��,3.2,5.4,99.9,0,0,13,���k��,4.2,59,,
2021/10/10,3:00:00,13,���k��,2.4,5.2,99.6,0,0,13,���k��,3.6,0,,
2021/10/10,4:00:00,12,��,1.7,4,100,0,0,12,��,2.5,53,,
2021/10/10,5:00:00,13,���k��,0.7,3.6,100,0,0,12,��,2.6,18,,
2021/10/10,6:00:00,14,�k��,2.1,5.2,100,0,0.02,13,���k��,2.9,59,,
2021/10/10,7:00:00,14,�k��,2.4,7.9,100,0,0.17,13,���k��,3.3,52,,
2021/10/10,8:00:00,2,�k��,0.4,12,89,0,0.37,14,�k��,2.5,7,,
2021/10/10,9:00:00,6,�쓌,0.7,14.5,84.5,0,0.48,5,���쓌,2,58,,
2021/10/10,10:00:00,6,�쓌,2.1,16.9,77.8,0,0.6,7,��쓌,4.6,35,,
2021/10/10,11:00:00,8,��,4.2,17.1,87.6,0,0.39,9,��쐼,9.4,59,,
2021/10/10,12:00:00,9,��쐼,5.8,17.5,87,0,0.2,8,��,11.8,24,,
2021/10/10,13:00:00,8,��,4,18.1,86.6,0,0.19,8,��,11.7,23,,
2021/10/10,14:00:00,8,��,5.1,18.4,85,0,0.19,9,��쐼,9.8,59,,
2021/10/10,15:00:00,9,��쐼,4.8,18.9,84.8,0,0.26,8,��,11,18,,
2021/10/10,16:00:00,9,��쐼,4.8,18.6,86.2,0,0.29,9,��쐼,9.2,54,,
2021/10/10,17:00:00,9,��쐼,3.9,18.3,88.7,0,0.04,9,��쐼,8.2,52,,
2021/10/10,18:00:00,7,��쓌,3.7,18.2,91.5,0,0,8,��,9.1,27,,
2021/10/10,19:00:00,6,�쓌,2.2,18.4,88.5,0,0,5,���쓌,6.8,12,,
2021/10/10,20:00:00,9,��쐼,4.1,21,81.1,0,0,10,�쐼,7.9,54,,
2021/10/10,21:00:00,10,�쐼,6.2,21.5,78.7,0,0,11,���쐼,10.9,49,,
2021/10/10,22:00:00,9,��쐼,5.7,19.9,84.4,0,0,8,��,12.4,54,,
2021/10/10,23:00:00,8,��,5.8,19.8,84.5,0,0,8,��,13.4,20,,
2021/10/10,0:00:00,7,��쓌,4.1,19.2,84.3,0,0,8,��,11.1,11,,
2021/10/11,1:00:00,6,�쓌,3.5,20.3,76,0,0,6,�쓌,10.1,5,,
2021/10/11,2:00:00,8,��,3.3,22.9,66.3,0,0,7,��쓌,8.8,37,,
2021/10/11,3:00:00,8,��,3.6,22.5,67.6,0,0,8,��,9,11,,
2021/10/11,4:00:00,10,�쐼,8.3,23.1,66.6,0,0,10,�쐼,15.8,34,,
2021/10/11,5:00:00,11,���쐼,9.3,23.9,64.9,0,0,11,���쐼,18.7,24,,
2021/10/11,6:00:00,12,��,10.1,23.7,65.2,0,0,10,�쐼,22.7,44,,
2021/10/11,7:00:00,15,�k�k��,3.6,17,92.3,0,0.01,13,���k��,14.3,10,,
2021/10/11,8:00:00,14,�k��,3.2,16.3,86.9,0,0.03,14,�k��,9.2,6,,
2021/10/11,9:00:00,13,���k��,1.8,16.4,91.2,0,0.05,15,�k�k��,7.8,5,,
2021/10/11,10:00:00,8,��,1.8,16.6,92.2,0,0.12,9,��쐼,3.8,4,,
2021/10/11,11:00:00,6,�쓌,2.2,16.1,92,0,0.12,5,���쓌,5.3,46,,
2021/10/11,12:00:00,7,��쓌,1.2,18.2,82.4,0,0.3,4,��,4.8,1,,
2021/10/11,13:00:00,11,���쐼,4.7,17.7,71.6,0,0.39,12,��,8.4,39,,
2021/10/11,14:00:00,11,���쐼,3.7,17,74.4,0,0.13,11,���쐼,8,42,,
2021/10/11,15:00:00,11,���쐼,3.6,16.5,64.8,0.5,0.15,12,��,9.1,14,,
2021/10/11,16:00:00,12,��,2.7,16,66.3,0,0.13,12,��,7.6,37,,
2021/10/11,17:00:00,12,��,2.7,14.2,75.1,0,0.02,10,�쐼,4.1,14,,
2021/10/11,18:00:00,13,���k��,2.2,11.6,89,0,0,12,��,3.7,1,,
2021/10/11,19:00:00,12,��,1.5,10.4,95.3,0,0,12,��,2.6,53,,
2021/10/11,20:00:00,12,��,0.6,9,98.5,0,0,13,���k��,2.2,52,,
2021/10/11,21:00:00,12,��,2.5,8.6,97.3,0,0,14,�k��,4.1,55,,
2021/10/11,22:00:00,13,���k��,3.4,11.6,82.5,0,0,13,���k��,5.4,56,,
2021/10/11,23:00:00,13,���k��,2.8,9.8,87.8,0,0,14,�k��,4.6,3,,
2021/10/11,0:00:00,13,���k��,2.7,9.8,85.2,0,0,14,�k��,5.5,13,,
2021/10/12,1:00:00,14,�k��,2.5,10.6,77.3,0,0,14,�k��,4.2,33,,
2021/10/12,2:00:00,12,��,2.4,7.6,92.1,0,0,14,�k��,3.8,3,,
2021/10/12,3:00:00,2,�k��,0.5,5.7,93.9,0,0,3,���k��,3.9,53,,
2021/10/12,4:00:00,11,���쐼,0.3,4.6,97.2,0,0,12,��,1.5,57,,
2021/10/12,5:00:00,13,���k��,0.7,4.3,93.9,0,0,13,���k��,2.7,15,,
2021/10/12,6:00:00,14,�k��,2,6.2,90.2,0,0.01,13,���k��,3.6,39,,
2021/10/12,7:00:00,14,�k��,2.1,9.1,85,0,0.15,13,���k��,4.6,32,,
2021/10/12,8:00:00,14,�k��,1.9,12.7,76.4,0,0.36,14,�k��,3.4,19,,
2021/10/12,9:00:00,2,�k��,1.2,15.7,68.9,0,0.49,14,�k��,3,0,,
2021/10/12,10:00:00,5,���쓌,1.8,15.6,69.3,0,0.51,5,���쓌,3.6,30,,
2021/10/12,11:00:00,6,�쓌,2.5,16.4,67.2,0,0.73,5,���쓌,4.8,12,,
2021/10/12,12:00:00,6,�쓌,3.1,15.6,65.7,0,0.73,4,��,5.8,2,,
2021/10/12,13:00:00,6,�쓌,3.6,15.5,67.1,0,0.68,6,�쓌,6.1,57,,
2021/10/12,14:00:00,5,���쓌,3.2,15.8,67.1,0,0.58,5,���쓌,5.4,2,,
2021/10/12,15:00:00,7,��쓌,1.8,15,71.9,0,0.39,6,�쓌,4.9,7,,
2021/10/12,16:00:00,10,�쐼,0.9,11.7,87.2,0,0.07,7,��쓌,3.9,4,,
2021/10/12,17:00:00,12,��,0.3,9.2,97.1,0,0.02,10,�쐼,1.8,3,,
2021/10/12,18:00:00,13,���k��,1,7.6,99.5,0,0,13,���k��,1.8,59,,
2021/10/12,19:00:00,12,��,1.1,6,99.2,0,0,12,��,2.5,13,,
2021/10/12,20:00:00,13,���k��,1.8,6.3,100,0,0,12,��,2.6,46,,
2021/10/12,21:00:00,12,��,2.4,6,100,0,0,12,��,2.7,56,,
2021/10/12,22:00:00,13,���k��,1.3,5.7,100,0,0,13,���k��,2.7,38,,
2021/10/12,23:00:00,13,���k��,1.9,7.3,100,0,0,13,���k��,2.6,58,,
2021/10/12,0:00:00,13,���k��,2.1,7.7,99.7,0,0,13,���k��,2.9,38,,
2021/10/13,1:00:00,13,���k��,1.5,7,99.7,0,0,13,���k��,2.5,8,,
2021/10/13,2:00:00,13,���k��,1.5,6.9,99.6,0,0,14,�k��,3.1,13,,
2021/10/13,3:00:00,13,���k��,1.7,7.5,99.8,0,0,14,�k��,2.8,56,,
2021/10/13,4:00:00,14,�k��,1.9,8.3,98.8,0,0,14,�k��,3.4,44,,
2021/10/13,5:00:00,13,���k��,1.8,8.7,98.3,0,0,13,���k��,2.8,21,,
2021/10/13,6:00:00,14,�k��,1.8,8.3,97.6,0,0.01,14,�k��,3,48,,
2021/10/13,7:00:00,13,���k��,1.4,10.4,94.1,0,0.16,13,���k��,2.5,36,,
2021/10/13,8:00:00,2,�k��,1.9,13.6,86.4,0,0.35,1,�k�k��,2.9,53,,
2021/10/13,9:00:00,3,���k��,3.1,15.1,81.5,0,0.57,2,�k��,4.7,52,,
2021/10/13,10:00:00,4,��,3.9,15.8,78.3,0,0.65,4,��,5.6,54,,
2021/10/13,11:00:00,4,��,4.3,15.8,72.4,0,0.72,4,��,6.1,35,,
2021/10/13,12:00:00,5,���쓌,4.5,15.2,71.1,0,0.73,4,��,6.9,31,,
2021/10/13,13:00:00,5,���쓌,3.9,15.1,70.7,0,0.68,5,���쓌,6.2,45,,
2021/10/13,14:00:00,4,��,3.6,14.9,71.5,0,0.58,4,��,6.2,20,,
2021/10/13,15:00:00,5,���쓌,3.4,14.4,76.2,0,0.43,4,��,5.5,43,,
2021/10/13,16:00:00,5,���쓌,2.4,13.1,82,0,0.24,5,���쓌,4.2,26,,
2021/10/13,17:00:00,16,�É�,0.1,9,94.5,0,0.04,4,��,2.4,2,,
2021/10/13,18:00:00,12,��,1.2,6,98.6,0,0,12,��,2,27,,
2021/10/13,19:00:00,13,���k��,1.6,6.6,100,0,0,13,���k��,2.5,23,,
2021/10/13,20:00:00,13,���k��,2.1,5.6,100,0,0,13,���k��,2.9,31,,
2021/10/13,21:00:00,13,���k��,2.3,5.6,100,0,0,14,�k��,3.1,55,,
2021/10/13,22:00:00,13,���k��,1.8,5.4,100,0,0,14,�k��,3,25,,
2021/10/13,23:00:00,13,���k��,2,4.7,100,0,0,14,�k��,3,25,,
2021/10/13,0:00:00,12,��,1.6,5,100,0,0,14,�k��,3.6,14,,
2021/10/14,1:00:00,13,���k��,2.2,4.1,100,0,0,14,�k��,3.2,43,,
2021/10/14,2:00:00,13,���k��,1.8,5.6,100,0,0,14,�k��,4,19,,
2021/10/14,3:00:00,13,���k��,1.7,6.4,99,0,0,14,�k��,4.3,41,,
2021/10/14,4:00:00,14,�k��,1.8,7.4,97,0,0,15,�k�k��,4.1,35,,
2021/10/14,5:00:00,14,�k��,2.8,7.5,96.5,0,0,14,�k��,4.8,57,,
2021/10/14,6:00:00,14,�k��,3,7.5,97.1,0,0.01,14,�k��,5.3,43,,
2021/10/14,7:00:00,14,�k��,2.5,8.4,97,0,0.05,14,�k��,5.9,28,,
2021/10/14,8:00:00,13,���k��,1.6,10.9,92.8,0,0.23,14,�k��,3.5,23,,
2021/10/14,9:00:00,5,���쓌,0.4,12.4,84.4,0,0.29,13,���k��,2.6,12,,
2021/10/14,10:00:00,3,���k��,1.9,14.6,77.9,0,0.35,4,��,3.9,59,,
2021/10/14,11:00:00,5,���쓌,2.2,13.9,77.4,0,0.43,5,���쓌,3.9,2,,
2021/10/14,12:00:00,5,���쓌,3.1,13.5,77,0,0.42,5,���쓌,5.6,36,,
2021/10/14,13:00:00,6,�쓌,3,13.7,73.5,0,0.48,6,�쓌,4.9,46,,
2021/10/14,14:00:00,5,���쓌,2.1,13.3,83.9,0,0.23,5,���쓌,4.7,8,,
2021/10/14,15:00:00,6,�쓌,2.2,12.8,85.7,0,0.12,6,�쓌,3.8,50,,
2021/10/14,16:00:00,5,���쓌,1.1,12.7,90.4,0,0.05,5,���쓌,3.1,45,,
2021/10/14,17:00:00,6,�쓌,0.9,12.9,91.1,0,0.01,7,��쓌,2.6,37,,
2021/10/14,18:00:00,3,���k��,1.3,13,93.7,0,0,4,��,2.3,54,,
2021/10/14,19:00:00,15,�k�k��,1.3,11.7,95.9,0,0,3,���k��,2.7,3,,
2021/10/14,20:00:00,13,���k��,1.2,11,97.3,0,0,14,�k��,5.7,19,,
2021/10/14,21:00:00,14,�k��,2.5,11.4,99,0,0,13,���k��,3.9,55,,
2021/10/14,22:00:00,12,��,1.9,11.6,98.4,0,0,14,�k��,3.3,1,,
2021/10/14,23:00:00,10,�쐼,1.2,11.3,98.4,0,0,12,��,3.2,0,,
2021/10/14,0:00:00,10,�쐼,0.6,11,98.9,0,0,13,���k��,2.3,29,,
2021/10/15,1:00:00,9,��쐼,2,12.5,98.2,0,0,10,�쐼,5.4,59,,
2021/10/15,2:00:00,14,�k��,1.7,12.6,97.7,0,0,8,��,6.8,9,,
2021/10/15,3:00:00,13,���k��,0.8,11.3,98.7,0,0,14,�k��,4,18,,
2021/10/15,4:00:00,11,���쐼,1.9,11.4,98.6,0,0,14,�k��,4.5,21,,
2021/10/15,5:00:00,13,���k��,1.9,11.6,98.2,0,0,12,��,3.1,19,,
2021/10/15,6:00:00,14,�k��,2.4,11.7,95.8,0,0,14,�k��,4.6,57,,
2021/10/15,7:00:00,15,�k�k��,0.9,12.1,94.9,0,0.05,13,���k��,6.2,5,,
2021/10/15,8:00:00,14,�k��,1.9,13.3,91.6,0,0.14,13,���k��,3.1,51,,
2021/10/15,9:00:00,2,�k��,1.1,14.5,90.3,0,0.14,15,�k�k��,2.6,12,,
2021/10/15,10:00:00,3,���k��,0.8,16,85.6,0,0.2,15,�k�k��,2.5,40,,
2021/10/15,11:00:00,7,��쓌,1.8,17.7,81.2,0,0.5,6,�쓌,3,58,,
2021/10/15,12:00:00,9,��쐼,1.2,18.4,71.5,0,0.41,8,��,3.5,2,,
2021/10/15,13:00:00,6,�쓌,2,18.6,71.5,0,0.6,6,�쓌,4.2,59,,
2021/10/15,14:00:00,7,��쓌,2.1,18.1,77.6,0,0.45,6,�쓌,3.9,23,,
2021/10/15,15:00:00,10,�쐼,0.7,18.5,72.1,0,0.41,8,��,3.1,17,,
2021/10/15,16:00:00,16,�k,2.2,17.1,54.8,0,0.18,15,�k�k��,5.5,45,,
2021/10/15,17:00:00,15,�k�k��,1.4,15.2,58.5,0,0.02,15,�k�k��,6.6,7,,
2021/10/15,18:00:00,15,�k�k��,3.2,14.7,48.2,0,0,16,�k,6.7,56,,
2021/10/15,19:00:00,15,�k�k��,3.5,13.2,53.5,0,0,16,�k,7.8,48,,
2021/10/15,20:00:00,15,�k�k��,3.5,12.2,64.1,0,0,15,�k�k��,8.4,2,,
2021/10/15,21:00:00,14,�k��,3.7,11.2,64.5,0,0,15,�k�k��,7.4,2,,
2021/10/15,22:00:00,14,�k��,1.6,9.7,68,0,0,15,�k�k��,7.4,9,,
2021/10/15,23:00:00,15,�k�k��,1.5,7.2,75.2,0,0,14,�k��,5.2,0,,
2021/10/15,0:00:00,12,��,0.5,5.6,84.8,0,0,14,�k��,3.9,23,,
2021/10/16,1:00:00,16,�k,0.7,4.9,93.8,0,0,7,��쓌,7.7,18,,
2021/10/16,2:00:00,13,���k��,2.6,5.5,92.1,0,0,13,���k��,3.6,58,,
2021/10/16,3:00:00,14,�k��,2.3,6.5,90.4,0,0,13,���k��,4,58,,
2021/10/16,4:00:00,13,���k��,0.8,6.1,92,0,0,14,�k��,3.2,1,,
2021/10/16,5:00:00,13,���k��,1.2,5.7,91.1,0,0,14,�k��,2.9,39,,
2021/10/16,6:00:00,13,���k��,1.9,6.2,91.7,0,0.01,14,�k��,3.3,47,,
2021/10/16,7:00:00,14,�k��,1.9,7.4,87.3,0,0.05,14,�k��,3.6,13,,
2021/10/16,8:00:00,13,���k��,1.8,9.1,81.4,0,0.13,14,�k��,4,20,,
2021/10/16,9:00:00,16,�É�,0.2,11,75,0,0.23,13,���k��,2.7,0,,
2021/10/16,10:00:00,4,��,2.2,11.2,70.8,0,0.28,8,��,6.7,9,,
2021/10/16,11:00:00,6,�쓌,3,10.9,70.2,0,0.14,5,���쓌,5.7,48,,
2021/10/16,12:00:00,6,�쓌,2.1,11.2,72.2,0,0.12,6,�쓌,5.2,57,,
2021/10/16,13:00:00,7,��쓌,2.8,11.2,71.3,0,0.08,6,�쓌,5.9,15,,
2021/10/16,14:00:00,7,��쓌,2.5,11.5,72.7,0,0.1,7,��쓌,5.6,41,,
2021/10/16,15:00:00,6,�쓌,2.1,11.2,81.8,0,0.05,7,��쓌,5.8,15,,
2021/10/16,16:00:00,15,�k�k��,1.1,9.9,97.3,2.5,0.02,7,��쓌,2.6,0,,
2021/10/16,17:00:00,13,���k��,2.4,9.5,98.5,2.5,0,13,���k��,3.7,45,,
2021/10/16,18:00:00,12,��,1.8,9.1,99.3,3,0,13,���k��,3.9,17,,
2021/10/16,19:00:00,16,�É�,0,9.2,99.8,0,0,12,��,2.3,23,,
2021/10/16,20:00:00,9,��쐼,2.9,11.5,97.9,1,0,8,��,7.2,44,,
2021/10/16,21:00:00,7,��쓌,3.7,12.3,96.6,0.5,0,8,��,7.4,50,,
2021/10/16,22:00:00,7,��쓌,4.6,12,96.5,0.5,0,8,��,11,58,,
2021/10/16,23:00:00,7,��쓌,5.2,12.1,97.9,0.5,0,7,��쓌,10.8,32,,
2021/10/16,0:00:00,8,��,3.9,12,98,0,0,8,��,10.9,7,,